K5RG-3 Weather Reports


time (UTC)temp
F
wind
direction
speed
knots
gust
knots
rain 1hr
in
rain 24hr
in
rain mn
in
humidity
%
barometer
mb
20260508010032 76 69 3.5 8.7 0.00 0.00 0.00 78 1011.3
20260508004537 76 73 3.5 8.7 0.00 0.00 0.00 78 1011.2
20260508003027 77 63 1.7 7.8 0.00 0.00 0.00 78 1011.1
20260508001529 77 71 1.7 9.6 0.00 0.00 0.00 78 1011.3
20260508000026 77 23 2.6 9.6 0.00 0.00 0.00 77 1011.3
20260507234532 77 51 6.1 9.6 0.00 0.00 0.00 77 1011.0
20260507233033 77 59 7.0 10.4 0.00 0.00 0.00 77 1011.0
20260507231525 78 83 2.6 9.6 0.00 0.00 0.00 77 1011.1
20260507230025 78 99 0.9 8.7 0.00 0.00 0.00 77 1011.2
20260507224525 78 81 6.1 11.3 0.00 0.00 0.00 77 1011.2
20260507223024 78 71 7.0 11.3 0.00 0.00 0.00 76 1011.1
20260507221522 78 84 6.1 8.7 0.00 0.00 0.00 77 1011.1
20260507220021 78 76 3.5 11.3 0.00 0.00 0.00 76 1011.2
20260507214526 77 66 5.2 10.4 0.00 0.00 0.00 77 1011.0
20260507213022 77 83 2.6 13.9 0.00 0.00 0.00 76 1011.2
20260507211523 78 90 4.3 11.3 0.00 0.00 0.00 75 1011.4
20260507210021 77 119 6.1 13.0 0.00 0.00 0.00 76 1011.5
20260507204519 77 69 4.3 8.7 0.00 0.00 0.00 76 1011.9
20260507203017 77 2 1.7 7.8 0.00 0.00 0.00 77 1011.9
20260507201516 76 13 1.7 6.1 0.00 0.00 0.00 77 1012.1
20260507200008 76 346 1.7 7.8 0.00 0.00 0.00 78 1012.3
20260507194506 75 31 2.6 8.7 0.00 0.00 0.00 77 1012.5
20260507193005 74 30 1.7 8.7 0.00 0.00 0.00 79 1012.6
20260507191508 73 20 3.5 10.4 0.00 0.00 0.00 79 1012.8
20260507190005 72 329 1.7 8.7 0.00 0.00 0.00 80 1012.8
20260507184504 72 340 2.6 7.8 0.00 0.00 0.00 80 1013.1
20260507183005 71 76 3.5 7.8 0.00 0.00 0.00 80 1013.2
20260507181504 71 347 3.5 8.7 0.00 0.00 0.00 80 1013.4
20260507180003 70 342 6.1 9.6 0.00 0.00 0.00 80 1013.4
20260507174636 70 20 2.6 9.6 0.00 0.00 0.00 81 1013.6
20260507173059 69 277 2.6 8.7 0.00 0.00 0.00 82 1013.7
20260507171610 68 90 2.6 8.7 0.00 0.00 0.00 83 1013.9
20260507170057 67 16 2.6 7.0 0.00 0.00 0.00 83 1013.6
20260507164556 66 42 3.5 9.6 0.00 0.00 0.00 84 1013.7
20260507163054 66 2 2.6 8.7 0.00 0.00 0.00 85 1013.9
20260507161553 65 333 4.3 8.7 0.00 0.00 0.00 85 1013.7
20260507160111 65 306 3.5 11.3 0.00 0.00 0.00 85 1013.7
20260507154548 65 29 5.2 9.6 0.00 0.00 0.00 85 1013.9
20260507153046 65 9 4.3 10.4 0.00 0.00 0.00 85 1013.9
20260507151548 65 102 2.6 7.8 0.00 0.00 0.00 86 1013.8
20260507150045 65 25 3.5 10.4 0.00 0.00 0.00 86 1013.7
20260507144544 65 334 5.2 12.2 0.00 0.00 0.00 85 1013.7
20260507143041 65 30 6.1 14.8 0.00 0.00 0.00 86 1013.4
20260507141540 65 6 3.5 9.6 0.00 0.00 0.00 86 1013.4
20260507140046 65 59 3.5 9.6 0.00 0.00 0.00 86 1013.3
20260507134536 65 332 6.1 12.2 0.00 0.00 0.00 86 1013.7
20260507133035 66 38 1.7 10.4 0.00 0.00 0.00 86 1013.9
20260507131600 66 20 4.3 8.7 0.00 0.00 0.00 86 1013.5
20260507130027 66 26 4.3 10.4 0.00 0.00 0.00 86 1013.3
20260507124524 67 315 2.6 10.4 0.00 0.00 0.00 86 1012.9
20260507123027 67 321 2.6 9.6 0.00 0.00 0.00 86 1012.6
20260507121519 67 13 2.6 7.0 0.00 0.00 0.00 86 1012.4
20260507120028 68 49 0.9 6.1 0.00 0.00 0.00 87 1012.1
20260507114514 68 14 0.9 5.2 0.00 0.00 0.00 87 1012.0
20260507113026 68 357 0.9 7.0 0.00 0.00 0.00 87 1011.5
20260507111513 68 350 2.6 8.7 0.00 0.00 0.00 87 1011.3
20260507110009 68 19 2.6 7.8 0.00 0.00 0.00 87 1011.5
20260507104509 69 358 1.7 7.8 0.00 0.00 0.00 87 1011.3
20260507103005 69 31 3.5 10.4 0.00 0.00 0.00 87 1011.2
20260507101503 69 37 3.5 10.4 0.00 0.00 0.00 87 1011.0
20260507100000 69 29 3.5 10.4 0.00 0.00 0.00 86 1010.8
20260507094620 69 336 2.6 11.3 0.00 0.00 0.00 86 1010.7
20260507093057 70 336 3.5 10.4 0.00 0.00 0.00 86 1010.7
20260507091554 70 10 3.5 9.6 0.00 0.00 0.00 86 1010.8
20260507090052 70 27 6.1 13.0 0.00 0.00 0.00 86 1010.5
20260507084558 71 30 3.5 14.8 0.00 0.00 0.00 86 1010.3
20260507083048 71 319 3.5 10.4 0.00 0.00 0.00 86 1010.2
20260507081546 71 55 5.2 10.4 0.00 0.00 0.00 86 1010.3
20260507080047 72 43 4.3 8.7 0.00 0.00 0.00 86 1010.3
20260507074546 72 36 5.2 11.3 0.00 0.00 0.00 86 1010.4
20260507073042 72 29 2.6 9.6 0.00 0.00 0.00 86 1010.5
20260507071543 72 348 4.3 11.3 0.00 0.00 0.00 85 1010.5
20260507070047 73 334 4.3 10.4 0.00 0.00 0.00 85 1010.6
20260507064544 73 306 3.5 10.4 0.00 0.00 0.00 86 1010.5
20260507063033 73 13 5.2 9.6 0.00 0.00 0.00 86 1010.5
20260507061535 74 11 5.2 10.4 0.00 0.00 0.00 86 1010.4
20260507060036 74 34 3.5 9.6 0.00 0.00 0.00 86 1010.2
20260507054537 74 19 5.2 10.4 0.00 0.00 0.00 86 1010.1
20260507053026 74 12 2.6 9.6 0.00 0.00 0.00 87 1010.2
20260507051521 75 19 4.3 10.4 0.00 0.00 0.00 88 1010.1
20260507050036 75 331 2.6 9.6 0.00 0.00 0.00 87 1010.3
20260507044522 76 323 3.5 8.7 0.00 0.00 0.00 87 1010.2
20260507043013 76 319 5.2 13.0 0.00 0.00 0.00 87 1010.3
20260507041511 78 298 4.3 9.6 0.00 0.00 0.00 92 1010.1
20260507040013 78 262 0.9 3.5 0.00 0.00 0.00 92 1009.8
20260507034506 78 237 0.0 1.7 0.00 0.00 0.00 92 1009.6
20260507033004 78 234 0.0 0.0 0.00 0.00 0.00 92 1009.3
20260507031506 78 234 0.0 0.0 0.00 0.00 0.00 91 1009.0
20260507030004 78 234 0.0 0.0 0.00 0.00 0.00 91 1008.8
20260507024502 78 234 0.0 0.0 0.00 0.00 0.00 91 1008.6
20260507023002 79 234 0.0 0.0 0.00 0.00 0.00 90 1008.5
20260507021613 79 234 0.0 0.0 0.00 0.00 0.00 90 1008.3
20260507020101 79 232 0.0 0.0 0.00 0.00 0.00 90 1008.0
20260507014602 79 201 0.0 0.0 0.00 0.00 0.00 89 1007.8
20260507013100 79 201 0.0 0.9 0.00 0.00 0.00 88 1007.7
20260507011604 80 238 0.0 0.0 0.00 0.00 0.00 88 1007.4